When you browse on this site, cookies collect data to enhance your experience and personalize the content and advertising you see.
Visit our Privacy Policy to learn more. By continuing to use the site, you agree to this use of cookies and data.
  • En España
  • Lista de países
  • Para 7 días
  • Temperatura del agua
  • Mapa Satelital
  • El tiempo en el mapa
  • Informadores
  • user-avatar
    Iniciar sesión

    Tiempo cada hora Sidi Bu-l-Abbas

    Hoy, 21 Marzo, Jueves

    Tiempo Temperatura Precipitaciones Viento Presión Humedad
    00:00 +4°C° 0 mm 0 mps 724 mmHg 91%
    01:00 +4°C° 0 mm 0 mps 724 mmHg 92%
    02:00 +4°C° 0 mm 0 mps 724 mmHg 92%
    03:00 +3°C° 0 mm 0 mps 723 mmHg 93%
    04:00 +3°C° 0 mm 0 mps 723 mmHg 93%
    05:00 +3°C° 0 mm 0 mps 724 mmHg 93%
    06:00 +4°C° 0 mm 1 mps 723 mmHg 92%
    07:00 +6°C° 0 mm 1 mps 724 mmHg 86%
    08:00 +8°C° 0 mm 1 mps 724 mmHg 80%
    09:00 +9°C° 0 mm 1 mps 725 mmHg 73%
    10:00 +10°C° 0.1 mm 1 mps 725 mmHg 72%
    11:00 +10°C° 0.1 mm 2 mps 725 mmHg 70%
    12:00 +10°C° 0.1 mm 3 mps 725 mmHg 68%
    13:00 +11°C° 0.1 mm 4 mps 724 mmHg 69%
    14:00 +11°C° 0.1 mm 4 mps 724 mmHg 70%
    15:00 +10°C° 0.1 mm 5 mps 724 mmHg 71%
    16:00 +9°C° 0.1 mm 5 mps 724 mmHg 72%
    17:00 +10°C° 0.1 mm 4 mps 724 mmHg 73%
    18:00 +10°C° 0.1 mm 4 mps 724 mmHg 75%
    19:00 +9°C° 0 mm 3 mps 724 mmHg 80%
    20:00 +8°C° 0 mm 2 mps 724 mmHg 85%
    21:00 +8°C° 0 mm 1 mps 725 mmHg 89%
    22:00 +9°C° 0.1 mm 1 mps 725 mmHg 89%
    23:00 +9°C° 0.1 mm 1 mps 724 mmHg 89%

    Mañana, 22 Marzo, Viernes

    Tiempo Temperatura Precipitaciones Viento Presión Humedad
    00:00 +9°C° 0.1 mm 1 mps 724 mmHg 89%
    01:00 +9°C° 0.1 mm 1 mps 724 mmHg 90%
    02:00 +9°C° 0.1 mm 1 mps 724 mmHg 91%
    03:00 +9°C° 0.1 mm 1 mps 724 mmHg 92%
    04:00 +10°C° 0.1 mm 1 mps 724 mmHg 93%
    05:00 +10°C° 0.1 mm 1 mps 724 mmHg 94%
    06:00 +10°C° 0.1 mm 1 mps 724 mmHg 95%
    07:00 +10°C° 0.1 mm 1 mps 724 mmHg 91%
    08:00 +10°C° 0.1 mm 2 mps 725 mmHg 87%
    09:00 +12°C° 0.1 mm 2 mps 725 mmHg 83%
    10:00 +12°C° 0.1 mm 2 mps 725 mmHg 80%
    11:00 +13°C° 0.1 mm 2 mps 725 mmHg 77%
    12:00 +13°C° 0.1 mm 2 mps 725 mmHg 75%
    13:00 +13°C° 0.2 mm 3 mps 725 mmHg 73%
    14:00 +13°C° 0.2 mm 4 mps 724 mmHg 72%
    15:00 +13°C° 0.2 mm 4 mps 724 mmHg 71%
    16:00 +13°C° 0.2 mm 4 mps 724 mmHg 75%
    17:00 +12°C° 0.2 mm 4 mps 724 mmHg 78%
    18:00 +12°C° 0.2 mm 3 mps 724 mmHg 82%
    19:00 +11°C° 0 mm 3 mps 724 mmHg 86%
    20:00 +10°C° 0 mm 2 mps 724 mmHg 90%
    21:00 +10°C° 0 mm 1 mps 725 mmHg 95%
    22:00 +9°C° 0 mm 1 mps 725 mmHg 95%
    23:00 +8°C° 0 mm 0 mps 724 mmHg 95%

    Pasado mañana, 23 Marzo, Sábado

    Tiempo Temperatura Precipitaciones Viento Presión Humedad
    00:00 +8°C° 0 mm 0 mps 724 mmHg 95%
    01:00 +7°C° 0 mm 0 mps 724 mmHg 95%
    02:00 +7°C° 0 mm 0 mps 724 mmHg 95%
    03:00 +7°C° 0 mm 0 mps 723 mmHg 95%
    04:00 +6°C° 0 mm 0 mps 723 mmHg 96%
    05:00 +6°C° 0 mm 0 mps 723 mmHg 96%
    06:00 +6°C° 0 mm 0 mps 723 mmHg 96%
    07:00 +9°C° 0 mm 1 mps 724 mmHg 88%
    08:00 +10°C° 0 mm 2 mps 724 mmHg 80%
    09:00 +13°C° 0 mm 2 mps 724 mmHg 71%
    10:00 +14°C° 0 mm 3 mps 724 mmHg 64%
    11:00 +16°C° 0 mm 3 mps 724 mmHg 56%
    12:00 +17°C° 0 mm 3 mps 724 mmHg 48%
    13:00 +18°C° 0 mm 4 mps 723 mmHg 45%
    14:00 +19°C° 0 mm 4 mps 723 mmHg 42%
    15:00 +20°C° 0 mm 5 mps 722 mmHg 38%
    16:00 +17°C° 0 mm 5 mps 722 mmHg 44%
    17:00 +16°C° 0 mm 5 mps 722 mmHg 49%
    18:00 +15°C° 0 mm 5 mps 721 mmHg 54%
    19:00 +14°C° 0 mm 5 mps 722 mmHg 62%
    20:00 +13°C° 0 mm 4 mps 722 mmHg 70%
    21:00 +11°C° 0 mm 3 mps 722 mmHg 78%
    22:00 +11°C° 0 mm 3 mps 722 mmHg 77%
    23:00 +11°C° 0 mm 3 mps 722 mmHg 76%

    24 Marzo, Domingo

    Tiempo Temperatura Precipitaciones Viento Presión Humedad
    00:00 +12°C° 0 mm 2 mps 722 mmHg 75%
    01:00 +12°C° 0 mm 2 mps 721 mmHg 68%
    02:00 +13°C° 0 mm 2 mps 721 mmHg 60%
    03:00 +13°C° 0 mm 2 mps 721 mmHg 53%
    04:00 +13°C° 0 mm 2 mps 721 mmHg 51%
    05:00 +13°C° 0 mm 2 mps 721 mmHg 50%
    06:00 +13°C° 0 mm 1 mps 722 mmHg 49%
    07:00 +15°C° 0 mm 2 mps 722 mmHg 45%
    08:00 +17°C° 0 mm 3 mps 723 mmHg 41%
    09:00 +19°C° 0 mm 4 mps 723 mmHg 38%
    10:00 +20°C° 0 mm 4 mps 723 mmHg 34%
    11:00 +21°C° 0 mm 4 mps 723 mmHg 31%
    12:00 +23°C° 0 mm 4 mps 723 mmHg 28%
    13:00 +23°C° 0 mm 4 mps 723 mmHg 27%
    14:00 +23°C° 0 mm 4 mps 722 mmHg 27%
    15:00 +24°C° 0 mm 3 mps 722 mmHg 26%
    16:00 +21°C° 0 mm 3 mps 722 mmHg 32%
    17:00 +20°C° 0 mm 3 mps 722 mmHg 37%
    18:00 +19°C° 0 mm 3 mps 721 mmHg 42%
    19:00 +18°C° 0 mm 3 mps 722 mmHg 45%
    20:00 +17°C° 0 mm 2 mps 722 mmHg 48%
    21:00 +16°C° 0 mm 2 mps 722 mmHg 51%
    22:00 +15°C° 0 mm 2 mps 722 mmHg 49%
    23:00 +15°C° 0 mm 2 mps 722 mmHg 48%

    25 Marzo, Lunes

    Tiempo Temperatura Precipitaciones Viento Presión Humedad
    00:00 +14°C° 0 mm 2 mps 722 mmHg 46%
    01:00 +13°C° 0 mm 3 mps 722 mmHg 45%
    02:00 +13°C° 0 mm 4 mps 722 mmHg 45%
    03:00 +13°C° 0 mm 4 mps 722 mmHg 44%
    04:00 +13°C° 0 mm 4 mps 722 mmHg 48%
    05:00 +12°C° 0 mm 4 mps 722 mmHg 52%
    06:00 +12°C° 0 mm 3 mps 722 mmHg 56%
    07:00 +14°C° 0 mm 4 mps 722 mmHg 52%
    08:00 +17°C° 0 mm 4 mps 722 mmHg 48%
    09:00 +19°C° 0 mm 5 mps 723 mmHg 43%
    10:00 +21°C° 0 mm 5 mps 723 mmHg 38%
    11:00 +22°C° 0 mm 5 mps 723 mmHg 33%
    12:00 +24°C° 0 mm 6 mps 723 mmHg 27%
    13:00 +25°C° 0 mm 5 mps 722 mmHg 27%
    14:00 +26°C° 0 mm 5 mps 722 mmHg 26%
    15:00 +26°C° 0 mm 4 mps 721 mmHg 25%
    16:00 +23°C° 0 mm 5 mps 721 mmHg 29%
    17:00 +22°C° 0 mm 5 mps 721 mmHg 33%
    18:00 +20°C° 0 mm 5 mps 720 mmHg 38%
    19:00 +19°C° 0 mm 4 mps 721 mmHg 42%
    20:00 +17°C° 0 mm 4 mps 721 mmHg 47%
    21:00 +16°C° 0 mm 3 mps 721 mmHg 51%
    22:00 +16°C° 0 mm 3 mps 721 mmHg 51%
    23:00 +16°C° 0 mm 3 mps 721 mmHg 50%

    26 Marzo, Martes

    Tiempo Temperatura Precipitaciones Viento Presión Humedad
    00:00 +14°C° 0 mm 3 mps 721 mmHg 50%
    01:00 +14°C° 0 mm 3 mps 721 mmHg 48%
    02:00 +14°C° 0 mm 3 mps 721 mmHg 46%
    03:00 +16°C° 0 mm 3 mps 721 mmHg 45%
    04:00 +16°C° 0 mm 3 mps 721 mmHg 44%
    05:00 +16°C° 0 mm 3 mps 721 mmHg 43%
    06:00 +16°C° 0 mm 3 mps 721 mmHg 43%
    07:00 +18°C° 0 mm 3 mps 721 mmHg 40%
    08:00 +19°C° 0 mm 3 mps 721 mmHg 38%
    09:00 +21°C° 0 mm 3 mps 722 mmHg 36%
    10:00 +23°C° 0 mm 4 mps 722 mmHg 32%
    11:00 +25°C° 0 mm 4 mps 722 mmHg 29%
    12:00 +27°C° 0 mm 5 mps 722 mmHg 26%
    13:00 +27°C° 0 mm 5 mps 721 mmHg 25%
    14:00 +28°C° 0 mm 5 mps 721 mmHg 24%
    15:00 +28°C° 0 mm 5 mps 720 mmHg 23%
    16:00 +26°C° 0 mm 5 mps 720 mmHg 27%
    17:00 +25°C° 0 mm 4 mps 719 mmHg 31%
    18:00 +22°C° 0 mm 4 mps 719 mmHg 35%
    19:00 +21°C° 0 mm 3 mps 719 mmHg 37%
    20:00 +20°C° 0 mm 3 mps 720 mmHg 39%
    21:00 +19°C° 0 mm 2 mps 720 mmHg 41%
    22:00 +19°C° 0 mm 3 mps 720 mmHg 38%
    23:00 +19°C° 0 mm 3 mps 720 mmHg 34%
    Mostrar más